sat.trackr.live / text

‹ back to catalog

N2-P-BODY

NORAD 69929 · 2026-156BN

PAYLOAD ACTIVE UNKNOWN

§ Identity

Operator
Country
US
Launch date
2026-07-07
Launch site
AFWTR
Launch vehicle
Mass (kg)
RCS (m²)

External: N2YO · Heavens-Above · Gunter

§ Orbital elements

Epoch: 2026-09-19T23:02:53.814048Z

Period
96.47 min
Inclination
97.7461°
Eccentricity
0.0007186
Mean motion
14.92746341 rev/d
Perigee alt
584.4 km
Apogee alt
594.4 km
Semi-major
6,967.5 km
B*
1.9202e-4
RAAN
162.2599°
Arg perigee
273.3439°
Mean anomaly
86.6958°
Rev number
1,113

§ Raw data

N2-P-BODY1 69929U 26156BN  26262.96034507  .00001928  00000+0  19202-3 0  99932 69929  97.7461 162.2599 0007186 273.3439  86.6958 14.92746341 11137

JSON: /api/v1/satellites/69929 · /tle

For live sub-satellite position, see the globe view (requires WebGL).

§ Visibility from observer

Set your observer location to see the next 7 days of passes ≥ 10°. The values pass through the URL so the page stays shareable.

No JS? Fill the form by hand. The geolocation button needs JavaScript.